COSMOS 1691 DEB, 43317

Orbit data source: Space-Track

COSMOS 1691 DEB, 43317 is space debris in LEO originally from a launch on Wed, 09 Oct 1985 UTC launched from the Plesetsk Missile And Space Complex (PKMTR). Debris objects in space refer to the collection of defunct objects orbiting the Earth. Examples of debris include non-operational satellites, rocket bodies, and fragments generated from explosions, collisions, or faulty payload assembly.

Loading next visibility...
Identifier
43317, 1985-094AB
Orbit
LEO
Country
Flag of CISCIS
Related business
Manufacturer
Unknown
Mission
Spacecraft
Bus & Motor
Unknown
Mass
Unknown
Launch date (UTC)
1985-10-09 (40 years ago)
Launch vehicle
Unknown
Launch site
Plesetsk Missile And Space Complex (PKMTR)
Object type
Payload
Rocket body
Debris
Shape & HBR
Unknown shape, 0.1 m
Radar Cross Section
Small (<0.1 m²)

Expand to show TLE details & history
Last TLE update: 2 days ago

TLE from 2 days ago
0 COSMOS 1691 DEB
1 43317U 85094AB  25339.29479508  .00000639  00000-0  28898-2 0  9995
2 43317  82.5567 177.8392 0011551  48.6487 311.5604 12.76686159560518
Epoch: 2025-12-05T07:04Z
TLE epoch observation values (Epoch: 2025-12-05T07:04:30.294Z)
Latitude
-0.00005°
Longitude
-2.62598°
Altitude
1,351.651 km
Speed
7.185 km/s
True Right ascension
11h 51m 21s
True Declination
0° 00' 00"
Sunlit
Object was in daylight at epoch
Visualization orbit readout
Latitude
Unknown
Longitude
Unknown
Altitude
Unknown
Speed
Unknown
Apparent Right ascension
Unknown
Apparent Declination
Unknown
Sunlit
N/A
Visualization observer readout
Local Sidereal Time
16:20:43
Azimuth
Unknown
Elevation
Unknown
Doppler factor
Unknown
Orbital elements
Apogee altitude
1,361.053 km
Perigee altitude
1,343.195 km
Semi-major axis
7,730.261 km
Eccentricity
0.00116
Inclination
82.5567°
RAAN
177.8392°
Arg. of periapsis
48.6487°
True anomaly
311.46126°
Mean anomaly
311.5604°
Eccentric anomaly
311.51084°
Mean motion
3.19339 °/min
Orbital period
112.73 mins
BSTAR
0.0028898
Loading maneuver chart data...
Computing Atmospheric mass density...
Loading historical data...
Loading historical data...
Loading historical data...
Loading historical data...
Loading historical data...
Loading historical data...
Loading historical data...

Documentation

Showing up to 5 results
|